Location: Waco, TX
(31.5480°N, 97.1670°W)
Time: 23:36:04
(UTC-06:00)

ISS - Pass Details

Date: 10 January 2018
Orbit: 402 x 407 km, 51.6° (Epoch: 19 January)

Event Time Altitude Azimuth Distance (km) Brightness Sun altitude
Rises 07:15:05 0° 335° (NNW) 2,326 -0.4 -3.5°
Reaches altitude 10° 07:18:31 10° 13° (NNE) 1,464 -1.1 -2.9°
Maximum altitude 07:19:31 11° 31° (NNE) 1,402 -1.0 -2.7°
Drops below altitude 10° 07:20:32 10° 49° (NE) 1,463 -0.6 -2.5°
Sets 07:23:57 0° 87° (E) 2,321 1.3 -1.8°
